Starlink 11665

operational
NORAD ID: 63549 Int'l Des: 2025-075 Owner: SPXS Country: US Constellation: starlink
LEOCIRCULAR

About Starlink 11665

Description loading...

Live Position

Loading 3D Globe...

Upcoming Passes

Altitude History

Altitude vs Time

uPlot chart will show altitude changes over time

Two-Line Element Set

1 63549U 25075B 25303.81702809 .00319004 00000-0 23931-2 0 9991
2 63549 42.9992 216.5786 0001269 229.5037 130.5720 15.70862228 32829
Epoch: Oct 30, 2025 • Age: 10 hours

Current Status

Altitude 368.3 km
Velocity 7.69 km/s
Sub-Earth Point -43.02°S, 0.88°E
Launch Date Apr 13, 2025
Age 0.5 years
Type internet

Technical Details

Classification Payload
Mass 960.00 kg
Dry Mass 910.00 kg
Total Mass 960.00 kg
Length 0.30 m
Diameter 4.10 m
Span 29.00 m
Shape Box + pan
Manufacturer SPXS
Bus Type Starlink V2MD
Phase Status In Orbit
Owner/State SPXS/US

Large Constellations

Loading constellations...